Latest Coastal Weather Observations for Cape Byron

IDN60701

Issued at 3:01 pm EDT Saturday 19 January 2019 (issued every 10 minutes, with the page automatically refreshed every 10 minutes)

About coastal observations | Map of coastal stations | Coastal observations for NSW | Marine services | Other Formats
Station Details ID: 058216 Name: CAPE BYRON AWS Lat: -28.64 Lon: 153.64 Height: 95.0 m
Data from the previous 72 hours. | See also: Recent months at Cape Byron
Date/Time
EDT
Wind Sea
Height
m
Swell Vis
km
Cloud Weather Temp
°C
Press
hPa
Rain since
9am
mm
Dir  Spd
kts
Gust
kts
Height
m
Period
s
Dir
19/03:00pm NNE 20 27 - - - - - - - 26.9 1014.0 0.0
19/02:31pm NNE 19 29 - - - - - - - 26.8 1014.1 0.0
19/02:30pm NNE 19 27 - - - - - - - 26.8 1014.2 0.0
19/02:02pm NNE 19 29 - - - - - - - 26.8 1014.5 0.0
19/02:00pm NNE 20 29 - - - - - - - 26.8 1014.5 0.0
19/01:30pm NNE 19 27 - - - - - - - 26.8 1014.8 0.0
19/01:19pm NNE 19 31 - - - - - - - 26.8 1015.1 0.0
19/01:00pm NNE 19 26 - - - - - - - 26.9 1015.4 0.0
19/12:30pm NNE 17 25 - - - - - - - 27.1 1015.5 0.0
19/12:00pm NNE 17 28 - - - - - - - 27.0 1015.7 0.0
19/11:53am NNE 17 28 - - - - - - - 27.0 1015.7 0.0
19/11:30am NNE 16 23 - - - - - - - 26.4 1016.2 0.0
19/11:00am N 17 23 - - - - - - - 26.9 1016.5 0.0
19/10:30am N 16 21 - - - - - - - 26.6 1016.8 0.0
19/10:00am N 14 18 - - - - - - - 26.1 1016.8 0.0
19/09:30am N 15 21 - - - - - - - 25.6 1016.9 0.0
19/09:00am N 17 22 - - - - - - - 25.1 1016.9 -
19/08:30am N 13 19 - - - - - - - 24.5 1017.0 -
19/08:00am N 13 18 - - - - - - - 23.8 1017.0 -
19/07:30am N 13 17 - - - - - - - 23.2 1016.9 -
19/07:00am N 12 15 - - - - - - - 22.6 1016.7 -
19/06:30am N 11 14 - - - - - - - 22.0 1016.4 -
19/06:00am N 9 13 - - - - - - - 21.9 1015.9 -
19/05:30am NNW 6 10 - - - - - - - 21.9 1016.1 -
19/05:00am NNW 7 11 - - - - - - - 21.9 1015.8 -
19/04:30am NNW 6 10 - - - - - - - 21.8 1015.6 -
19/04:00am NNW 7 11 - - - - - - - 22.2 1015.5 -
19/03:30am NNW 10 15 - - - - - - - 22.7 1015.5 -
19/03:00am N 12 18 - - - - - - - 22.6 1015.3 -
19/02:30am N 13 18 - - - - - - - 22.6 1015.5 -
19/02:00am N 13 18 - - - - - - - 22.6 1015.6 0.0
19/01:30am N 11 17 - - - - - - - 22.8 1015.8 0.0
19/01:00am N 15 20 - - - - - - - 23.1 1015.7 0.0
19/12:30am N 15 21 - - - - - - - 23.4 1015.8 0.0
19/12:00am N 15 19 - - - - - - - 23.4 1016.1 0.0
 
Date/Time
EDT
Wind Sea
Height
m
Swell Vis
km
Cloud Weather Temp
°C
Press
hPa
Rain since
9am
mm
Dir  Spd
kts
Gust
kts
Height
m
Period
s
Dir
18/11:30pm N 14 20 - - - - - - - 23.5 1016.3 0.0
18/11:00pm N 15 21 - - - - - - - 23.9 1016.2 0.0
18/10:30pm N 15 21 - - - - - - - 23.9 1016.2 0.0
18/10:00pm N 16 21 - - - - - - - 24.2 1016.2 0.0
18/09:30pm N 16 23 - - - - - - - 24.3 1016.2 0.0
18/09:00pm N 17 23 - - - - - - - 24.7 1016.1 0.0
18/08:30pm NNE 16 23 - - - - - - - 24.8 1015.7 0.0
18/08:00pm NNE 16 23 - - - - - - - 25.0 1015.5 0.0
18/07:33pm NNE 15 25 - - - - - - - 25.4 1015.1 0.0
18/07:30pm NNE 16 25 - - - - - - - 25.4 1015.1 0.0
18/07:00pm NNE 18 24 - - - - - - - 25.7 1014.7 0.0
18/06:47pm NNE 17 27 - - - - - - - 25.8 1014.6 0.0
18/06:30pm NNE 18 27 - - - - - - - 25.9 1014.3 0.0
18/06:00pm NNE 17 24 - - - - - - - 26.1 1014.2 0.0
18/05:30pm NNE 16 24 - - - - - - - 26.3 1014.3 0.0
18/05:00pm NNE 15 24 - - - - - - - 26.6 1014.2 0.0
18/04:30pm NNE 15 23 - - - - - - - 26.8 1014.4 0.0
18/04:00pm NE 15 22 - - - - - - - 26.7 1014.4 0.0
18/03:30pm NE 16 25 - - - - - - - 27.4 1014.6 0.0
18/03:00pm NNE 15 24 - - - - - - - 27.1 1014.8 0.0
18/02:30pm NNE 15 23 - - - - - - - 27.2 1014.9 0.0
18/02:00pm NNE 16 23 - - - - - - - 27.3 1015.2 0.0
18/01:30pm NNE 15 22 - - - - - - - 27.4 1015.4 0.0
18/01:00pm NNE 15 22 - - - - - - - 27.4 1015.9 0.0
18/12:30pm NNE 15 21 - - - - - - - 27.3 1016.4 0.0
18/12:00pm NNE 13 19 - - - - - - - 27.3 1016.7 0.0
18/11:30am NNE 11 15 - - - - - - - 27.6 1017.0 0.0
18/11:00am N 11 15 - - - - - - - 27.6 1017.2 0.0
18/10:30am N 10 13 - - - - - - - 27.4 1017.5 0.0
18/10:00am N 9 11 - - - - - - - 26.7 1017.5 0.0
18/09:30am N 8 11 - - - - - - - 26.2 1017.5 0.0
18/09:00am N 6 9 - - - - - - - 25.2 1017.6 0.0
18/08:30am N 6 8 - - - - - - - 25.0 1017.2 0.0
18/08:00am N 6 9 - - - - - - - 24.2 1017.0 0.0
18/07:30am N 5 8 - - - - - - - 24.3 1016.7 0.0
18/07:00am NNW 5 8 - - - - - - - 23.4 1016.3 0.0
18/06:30am NNW 6 11 - - - - - - - 22.9 1015.7 0.0
18/06:00am NNW 6 10 - - - - - - - 23.0 1015.3 0.0
18/05:30am NNW 6 10 - - - - - - - 23.0 1014.9 0.0
18/05:00am NNW 7 10 - - - - - - - 23.1 1014.6 0.0
18/04:30am N 8 13 - - - - - - - 23.0 1014.1 0.0
18/04:00am N 10 14 - - - - - - - 23.0 1013.9 0.0
18/03:30am N 9 13 - - - - - - - 23.0 1013.8 0.0
18/03:00am N 10 15 - - - - - - - 23.2 1013.7 0.0
18/02:30am N 11 15 - - - - - - - 23.2 1013.8 0.0
18/02:00am N 12 17 - - - - - - - 23.6 1013.8 0.0
18/01:30am N 12 17 - - - - - - - 23.6 1014.1 0.0
18/01:00am N 13 19 - - - - - - - 23.8 1014.1 0.0
18/12:30am N 14 21 - - - - - - - 24.1 1014.2 0.0
18/12:00am N 17 24 - - - - - - - 24.2 1014.4 0.0
 
Date/Time
EDT
Wind Sea
Height
m
Swell Vis
km
Cloud Weather Temp
°C
Press
hPa
Rain since
9am
mm
Dir  Spd
kts
Gust
kts
Height
m
Period
s
Dir
17/11:30pm N 17 22 - - - - - - - 24.4 1014.5 0.0
17/11:00pm NNE 15 22 - - - - - - - 24.4 1014.5 0.0
17/10:30pm NNE 17 23 - - - - - - - 24.5 1014.3 0.0
17/10:00pm NNE 16 25 - - - - - - - 24.6 1014.4 0.0
17/09:30pm NNE 16 23 - - - - - - - 24.6 1014.2 0.0
17/09:00pm NNE 17 24 - - - - - - - 24.7 1013.9 0.0
17/08:50pm NNE 15 25 - - - - - - - 24.8 1013.8 0.0
17/08:30pm NNE 17 24 - - - - - - - 24.9 1013.6 0.0
17/08:00pm NNE 16 23 - - - - - - - 25.1 1013.6 0.0
17/07:30pm NNE 16 24 - - - - - - - 25.4 1013.5 0.0
17/07:00pm NNE 13 19 - - - - - - - 25.6 1013.3 0.0
17/06:30pm NE 13 17 - - - - - - - 26.1 1013.1 0.0
17/06:00pm NE 13 18 - - - - - - - 26.5 1012.8 0.0
17/05:30pm NE 13 20 - - - - - - - 26.5 1012.7 0.0
17/05:00pm NNE 13 17 - - - - - - - 26.7 1012.7 0.0
17/04:30pm NE 14 20 - - - - - - - 27.1 1012.8 0.0
17/04:00pm NE 20 25 - - - - - - - 27.8 1013.2 0.0
17/03:30pm NE 21 25 - - - - - - - 27.5 1013.4 0.0
17/03:00pm NE 22 25 - - - - - - - 28.7 1013.9 0.0
17/02:30pm NE 21 25 - - - - - - - 29.0 1014.1 0.0
17/02:00pm NE 20 24 - - - - - - - 28.0 1014.4 0.0
17/01:30pm NE 18 23 - - - - - - - 28.6 1014.6 0.0
17/01:00pm NE 17 21 - - - - - - - 28.9 1015.0 0.0
17/12:30pm NE 15 21 - - - - - - - 28.3 1015.2 0.0
17/12:00pm NNE 13 21 - - - - - - - 27.6 1015.6 0.0
17/11:30am NNE 13 18 - - - - - - - 27.7 1015.6 0.0
17/11:00am NNE 12 17 - - - - - - - 27.1 1015.9 0.0
17/10:30am NNE 11 17 - - - - - - - 27.1 1016.3 0.0
17/10:00am NNE 12 17 - - - - - - - 26.5 1016.1 0.0
17/09:30am NNE 11 14 - - - - - - - 26.2 1016.2 0.0
17/09:00am NNE 10 15 - - - - - - - 26.1 1016.1 0.0
17/08:30am NNE 11 15 - - - - - - - 25.6 1015.8 0.0
17/08:00am NNE 11 17 - - - - - - - 25.1 1015.7 0.0
17/07:30am NNE 12 18 - - - - - - - 24.8 1015.3 0.0
17/07:00am NNE 13 18 - - - - - - - 24.3 1014.8 0.0
17/06:30am NNE 12 17 - - - - - - - 24.1 1014.2 0.0
17/06:00am NNE 11 17 - - - - - - - 24.1 1014.0 0.0
17/05:30am NNE 12 19 - - - - - - - 24.1 1013.4 0.0
17/05:00am NNE 14 19 - - - - - - - 24.2 1013.2 0.0
17/04:30am NNE 14 20 - - - - - - - 24.1 1013.0 0.0
17/04:00am NNE 14 22 - - - - - - - 24.1 1012.9 0.0
17/03:30am N 14 18 - - - - - - - 24.0 1012.9 0.0
17/03:00am NNE 13 18 - - - - - - - 24.1 1013.1 0.0
17/02:30am NNE 14 20 - - - - - - - 24.2 1013.5 0.0
17/02:00am N 15 21 - - - - - - - 24.3 1013.7 0.0
17/01:30am N 14 21 - - - - - - - 24.4 1013.9 0.0
17/01:00am N 15 21 - - - - - - - 24.4 1014.0 0.0
17/12:30am NNE 15 23 - - - - - - - 24.4 1014.0 0.0
17/12:17am NNE 15 25 - - - - - - - 24.5 1014.1 0.0
17/12:00am NNE 16 24 - - - - - - - 24.5 1014.1 0.0
 
Date/Time
EDT
Wind Sea
Height
m
Swell Vis
km
Cloud Weather Temp
°C
Press
hPa
Rain since
9am
mm
Dir  Spd
kts
Gust
kts
Height
m
Period
s
Dir
16/11:30pm NNE 15 23 - - - - - - - 24.5 1014.2 0.0
16/11:12pm NNE 16 26 - - - - - - - 24.5 1014.2 0.0
16/11:00pm NNE 17 25 - - - - - - - 24.6 1014.0 0.0
16/10:38pm NNE 16 26 - - - - - - - 24.6 1014.0 0.0
16/10:30pm NNE 15 21 - - - - - - - 24.6 1014.0 0.0
16/10:00pm NNE 15 22 - - - - - - - 24.7 1014.0 0.0
16/09:30pm NNE 16 22 - - - - - - - 24.7 1013.7 0.0
16/09:00pm NNE 16 23 - - - - - - - 24.8 1013.4 0.0
16/08:30pm NNE 17 25 - - - - - - - 24.8 1012.7 0.0
16/08:02pm NNE 15 25 - - - - - - - 24.8 1012.4 0.0
16/08:00pm NNE 15 21 - - - - - - - 24.9 1012.3 0.0
16/07:32pm NNE 15 26 - - - - - - - 25.0 1012.3 0.0
16/07:30pm NNE 15 22 - - - - - - - 25.0 1012.3 0.0
16/07:00pm NNE 16 23 - - - - - - - 25.4 1012.1 0.0
16/06:30pm NNE 16 27 - - - - - - - 25.7 1012.0 0.0
16/06:28pm NNE 17 27 - - - - - - - 25.7 1011.8 0.0
16/06:00pm NNE 15 22 - - - - - - - 26.0 1011.6 0.0
16/05:49pm NNE 15 25 - - - - - - - 26.1 1011.4 0.0
16/05:30pm NE 15 21 - - - - - - - 26.3 1011.4 0.0
16/05:09pm NE 16 26 - - - - - - - 26.8 1011.3 0.0
16/05:00pm NE 17 25 - - - - - - - 26.8 1011.2 0.0
16/04:30pm NE 21 27 - - - - - - - 27.2 1011.2 0.0
16/04:00pm NE 21 27 - - - - - - - 28.0 1011.6 0.0
16/03:30pm NE 20 27 - - - - - - - 28.1 1012.0 0.0

Other Formats:

Comma delimited format used in spreadsheet applications
http://www.bom.gov.au/fwo/IDN60701/IDN60701.94599.axf

JavaScript Object Notation format (JSON) in row-major order
http://www.bom.gov.au/fwo/IDN60701/IDN60701.94599.json